Location: A�t Ben Ahmed
(31.1328°N, 8.9018°W)
Time: 22:07:02
(UTC+00:00)

Daily predictions for brighter satellites

Satellite Brightness Start Highest point End
(mag) Time Altitude Azimuth Time Altitude Azimuth Time Altitude Azimuth
Atlas Centaur 2 3.3 18:42:55 10° WSW 18:51:02 65° SSE 18:59:26 10° E
Okean-O 4.4 18:48:59 10° E 18:51:15 14° ENE 18:53:30 10° NE
CZ-3B R/B 3.0 18:46:42 10° NW 18:54:19 40° NNE 18:57:15 10° ESE
CZ-4B R/B 3.0 18:52:36 10° ENE 18:54:22 14° E 18:56:08 10° SE
BREEZE-M DEB (TANK) 2.5 18:49:28 10° NW 18:55:33 57° NE 18:58:09 10° ESE
Cosmos 2074 Rocket 4.3 18:50:24 10° SSE 18:56:17 46° E 19:02:12 10° NNE
COSMOS 2455 4.1 18:57:52 10° N 19:02:32 23° NE 19:07:10 10° ESE
H-2A R/B 2.7 18:59:50 10° SSE 19:04:06 54° ENE 19:08:29 10° N
HJ-1C 4.4 19:05:57 10° SE 19:08:40 25° ENE 19:11:23 10° NNE
Cosmos 1340 3.1 19:07:37 10° N 19:11:10 39° E 19:14:42 10° SSE
OAO 2 Rocket 3.5 19:08:51 10° WNW 19:14:11 75° NNE 19:18:39 15° E
Cosmos 1833 Rocket 4.2 19:11:08 10° NW 19:16:20 39° WSW 19:21:30 10° S
Cosmos 1503 Rocket 4.2 19:15:06 10° SSW 19:20:19 76° WNW 19:25:31 10° NNE
Cosmos 1908 Rocket 3.6 19:16:53 10° S 19:21:15 59° E 19:25:38 10° NNE
NOSS 3-2 (A) 4.4 19:18:09 10° SSE 19:21:46 19° ESE 19:24:06 15° ENE
Okean O Rocket 2.8 19:20:09 10° S 19:24:20 45° W 19:28:32 10° NNW
Cosmos 1842 3.9 19:21:11 10° NNW 19:25:04 59° W 19:28:54 10° S
SEDSat Delta rocket 3.9 19:22:15 10° W 19:29:01 87° N 19:33:33 20° E
Cosmos 1378 Rocket 3.5 19:25:38 10° N 19:30:02 67° E 19:34:26 10° SSE
ATLAS CENTAUR R/B 3.0 19:27:26 10° N 19:31:11 22° NE 19:32:33 20° E
Cosmos 1777 Rocket 4.1 19:26:33 10° S 19:31:39 53° ESE 19:36:44 10° NNE
Cosmos 2181 Rocket 4.3 19:25:50 10° N 19:32:01 73° W 19:38:17 10° S
Cosmos 1461 3.5 19:30:58 10° N 19:34:31 32° ENE 19:35:38 27° E
YAOGAN 1 2.5 19:30:31 10° SSE 19:34:50 83° ENE 19:39:10 10° N
ARGOS 3.8 19:35:38 10° S 19:40:52 58° W 19:46:10 10° NNW
Cosmos 2184 Rocket 4.3 19:35:57 10° SSW 19:42:17 73° W 19:48:36 10° N
Cosmos 2082 Rocket 3.0 19:37:30 10° NNW 19:43:02 53° WSW 19:48:30 10° S
Centaur AC-116 3.6 19:35:26 10° W 19:43:03 45° SSW 19:44:21 28° SE
CZ-4 R/B 1.6 19:41:08 10° S 19:44:56 66° W 19:48:44 10° NNW
SJ 16-02 1.5 19:40:49 10° S 19:45:03 49° ESE 19:49:19 10° NNE
Lacrosse 5 rocket 3.4 19:42:57 10° N 19:45:31 15° NE 19:45:50 15° NE
Cosmos 1295 Rocket 4.4 19:41:21 10° S 19:47:30 71° E 19:53:44 10° N
Cosmos 2327 Rocket 4.4 19:42:28 10° S 19:48:38 77° E 19:54:55 10° N
Cosmos 1674 Rocket 4.1 19:44:31 10° NNW 19:48:46 59° W 19:53:00 10° S
Cosmos 1943 Rocket 3.7 19:46:31 10° SW 19:51:35 36° WNW 19:56:43 10° N
Cosmos 1610 Rocket 4.4 19:48:29 10° S 19:54:46 90° WNW 20:01:00 10° N
Okean 2 4.2 19:51:00 10° NNW 19:54:56 51° W 19:58:54 10° S
Cosmos 1400 Rocket 4.2 19:53:22 10° SSW 19:57:15 40° W 20:01:06 10° N
Cosmos 2369 Rocket 2.4 19:54:17 10° SSW 19:59:56 73° WNW 20:05:35 10° NNE
Cosmos 2154 Rocket 4.2 19:55:04 10° S 20:01:23 75° W 20:07:45 10° N
SeaSat 1 3.6 20:05:07 27° NE 20:05:07 27° NE 20:08:42 10° N
Cosmos 1805 3.0 20:03:13 10° S 20:07:05 84° E 20:10:58 10° N
CSL-04 Debris 4.1 20:05:45 16° SSE 20:10:12 87° ENE 20:15:37 10° NNW
Cosmos 773 Rocket 4.0 20:06:04 10° N 20:11:16 58° ENE 20:11:57 53° ESE
SL-8 Rocket 4.2 20:09:51 37° SE 20:11:39 47° E 20:17:38 10° NNE
Cosmos 1782 Rocket 4.0 20:08:10 10° SSW 20:12:35 64° W 20:16:59 10° N
Meteor 1-15 Rocket 4.0 20:09:22 10° S 20:14:52 67° E 20:20:23 10° NNE
ASTRO E2 3.7 20:15:17 10° WSW 20:18:03 37° SSW 20:18:03 37° SSW
ATLAS 3B CENTAUR R/B 2.9 20:16:55 10° WSW 20:18:04 18° WSW 20:18:04 18° WSW
OAO 3 Copernicus 4.4 20:14:52 10° WNW 20:19:53 61° N 20:20:25 57° NE
Skynet4D Del rocket 4.5 20:15:43 10° W 20:20:53 39° SSW 20:22:02 35° SSE
Cosmos 1674 3.1 20:18:03 10° NNW 20:21:13 57° NW 20:21:13 57° NW
Nadezhda 3 Rocket 4.0 20:18:53 10° N 20:25:01 76° W 20:31:11 10° S
Cosmos 783 Rocket 4.5 20:20:53 10° NNW 20:26:12 83° WSW 20:27:21 56° S
CZ-4B R/B 4.3 20:24:16 10° NNW 20:26:16 16° WNW 20:28:18 10° WSW
Okean-O 3.8 20:23:30 12° SSW 20:27:18 40° W 20:31:29 10° NNW
Cosmos 1656 Rocket 4.3 20:28:23 10° SW 20:33:51 54° WNW 20:39:16 10° N
USA 215 3.4 20:37:06 53° ENE 20:37:36 54° NE 20:43:57 10° NNW
Centaur AC-112 3.9 20:31:33 10° WSW 20:39:15 38° SSW 20:39:15 38° SSW
Atlas Centaur 2 2.9 20:32:24 10° W 20:41:00 86° S 20:42:41 62° E
Intelsat 5-3 Rocket 4.1 20:37:08 10° SW 20:40:09 37° SSW 20:40:09 37° SSW
Cosmos 1626 4.5 20:38:37 10° NNW 20:39:42 18° NNW 20:39:42 18° NNW
CENTAUR R/B 3.6 20:42:19 10° SSW 20:44:20 25° SSW 20:44:20 25° SSW
COSMOS 2455 3.6 20:42:54 10° NW 20:48:38 47° WSW 20:50:28 36° SSW
Cosmos 1975 Rocket 4.3 20:44:21 10° NNW 20:47:16 38° NW 20:47:16 38° NW
Cosmos 2341 Rocket 4.4 20:43:45 10° SSW 20:49:57 62° W 20:56:15 10° N
USA 238 DEB 4.4 20:54:58 10° SSW 20:58:43 39° SSW 20:58:43 39° SSW
USA 238 4.5 20:55:06 10° SSW 20:58:38 36° SSW 20:58:38 36° SSW
Cosmos 2218 Rocket 4.5 21:04:11 52° NNW 21:04:11 52° NNW 21:08:48 10° N
FALCON 9 R/B 4.0 19:31:34 10° WSW 21:06:21 78° S 21:10:08 58° ESE
ATLAS CENTAUR R/B 3.5 21:05:45 10° NW 21:08:43 29° WNW 21:08:43 29° WNW
NOSS 3-2 (A) 4.2 21:06:52 10° SW 21:11:44 43° WNW 21:11:44 43° WNW
Lacrosse 5 rocket 4.3 21:20:42 10° NW 21:21:27 15° NW 21:21:27 15° NW
CZ-3 Stage 3 4.4 21:34:27 10° W 21:42:14 37° W 21:42:14 37° W
